This is the latest recevied weather packets stored in our database for station/object W5ITZ. If no packets are shown the sender has not sent any weather packets the latest 10 day(s).
| Time | Temp. | Humidity | Pressure | Rain* | Wind** | Luminosity | Snow |
|---|---|---|---|---|---|---|---|
| 1777747383 | 22.78° C | 51% | 1020.1 hPa | 0 mm | - | 985 W/m² | - |
| 1777747080 | 22.78° C | 51% | 1019.9 hPa | 0 mm | - | 989 W/m² | - |
| 1777746776 | 22.22° C | 54% | 1020 hPa | 0 mm | - | 993 W/m² | - |
| 1777746472 | 22.22° C | 52% | 1020 hPa | 0 mm | - | 993 W/m² | - |
| 1777746168 | 22.22° C | 53% | 1020.3 hPa | 0 mm | - | 992 W/m² | - |
| 1777745864 | 22.22° C | 54% | 1020.4 hPa | 0 mm | - | 992 W/m² | - |
| 1777745563 | 22.22° C | 54% | 1020.4 hPa | 0 mm | - | 994 W/m² | - |
| 1777745261 | 22.22° C | 54% | 1020.5 hPa | 0 mm | - | 996 W/m² | - |
| 1777744958 | 21.67° C | 53% | 1020.5 hPa | 0 mm | - | 1011 W/m² | - |
| 1777744657 | 21.67° C | 52% | 1020.8 hPa | 0 mm | - | 1016 W/m² | - |
| 1777744352 | 21.67° C | 55% | 1020.6 hPa | 0 mm | - | 1055 W/m² | - |
| 1777744050 | 21.67° C | 55% | 1020.8 hPa | 0 mm | - | 1035 W/m² | - |
| 1777743747 | 21.67° C | 54% | 1020.7 hPa | 0 mm | - | 1017 W/m² | - |
| 1777743444 | 21.67° C | 54% | 1021.1 hPa | 0 mm | - | 1007 W/m² | - |
| 1777743141 | 21.67° C | 55% | 1021.2 hPa | 0 mm | - | 906 W/m² | - |
| 1777742840 | 21.11° C | 56% | 1021.1 hPa | 0 mm | - | 1022 W/m² | - |
| 1777742535 | 21.11° C | 55% | 1021.1 hPa | 0 mm | - | 1056 W/m² | - |
| 1777742231 | 21.67° C | 56% | 1021.4 hPa | 0 mm | - | 1004 W/m² | - |
| 1777741928 | 21.67° C | 59% | 1021.3 hPa | 0 mm | - | 976 W/m² | - |
| 1777741625 | 21.11° C | 56% | 1021.3 hPa | 0 mm | - | 964 W/m² | - |
| 1777741322 | 20.56° C | 62% | 1021.4 hPa | 0 mm | - | 951 W/m² | - |
| 1777741018 | 20.56° C | 61% | 1021.5 hPa | 0 mm | - | 942 W/m² | - |
| 1777740715 | 20.56° C | 61% | 1021.4 hPa | 0 mm | - | 933 W/m² | - |
| 1777740411 | 20° C | 61% | 1021.4 hPa | 0 mm | - | 928 W/m² | - |
| 1777740109 | 20° C | 63% | 1021.4 hPa | 0 mm | - | 816 W/m² | - |
* Rain latest hour (hover to see other rain measurements)
** Current wind speed in m/s (hover to see current wind gust speed)